CW8033 Weather Reports


Display with metric or nautical units.
time (UTC)temp
F
wind
direction
speed
MPH
gust
MPH
rain 1hr
in
rain 24hr
in
rain mn
in
humidity
%
barometer
mb
20260506051201 51 207 6.0 14.0 0.00 0.10 0.01 90 1003.3
20260506050702 51 216 6.0 10.0 0.00 0.10 0.01 90 1003.3
20260506050201 51 186 5.0 10.0 0.00 0.10 0.01 90 1003.3
20260506044701 51 188 6.0 12.0 0.00 0.10 0.01 91 1003.5
20260506044201 51 209 7.0 12.0 0.00 0.10 0.01 91 1003.5
20260506043703 51 194 6.0 11.0 0.00 0.10 0.01 91 1003.5
20260506043201 51 206 5.0 9.0 0.00 0.10 0.01 91 1003.5
20260506042702 51 186 5.0 9.0 0.00 0.10 0.01 91 1003.6
20260506042507 51 203 6.0 10.0 0.00 0.10 0.01 91 1003.6
20260506041700 51 219 7.0 10.0 0.00 0.10 0.01 91 1003.6
20260506041201 52 196 6.0 9.0 0.00 0.10 0.01 91 1003.7
20260506040702 52 180 5.0 9.0 0.00 0.10 0.01 91 1003.6
20260506040201 51 184 5.0 11.0 0.00 0.10 0.01 91 1003.6
20260506035701 52 194 6.0 12.0 0.00 0.10 0.01 91 1003.6
20260506035202 51 165 5.0 12.0 0.00 0.10 0.01 91 1003.8
20260506034701 51 182 5.0 10.0 0.00 0.10 0.01 91 1003.8
20260506034203 52 190 5.0 10.0 0.00 0.10 0.01 91 1003.9
20260506033701 52 188 5.0 10.0 0.00 0.10 0.01 91 1003.9
20260506033200 52 211 6.0 10.0 0.00 0.10 0.01 91 1003.8
20260506032701 52 186 6.0 11.0 0.00 0.10 0.01 91 1003.8
20260506032202 52 209 6.0 11.0 0.00 0.10 0.01 91 1003.8
20260506031702 52 195 6.0 10.0 0.00 0.10 0.01 91 1003.7
20260506031201 52 183 6.0 11.0 0.00 0.10 0.01 91 1003.8
20260506030702 52 175 6.0 11.0 0.00 0.10 0.01 91 1003.9
20260506030201 52 210 5.0 9.0 0.00 0.10 0.01 91 1003.9
20260506025701 53 169 5.0 9.0 0.00 0.10 0.01 91 1003.9
20260506025201 53 205 5.0 10.0 0.00 0.10 0.01 91 1004.0
20260506024701 53 213 6.0 11.0 0.00 0.10 0.01 91 1004.0
20260506024201 53 191 7.0 11.0 0.00 0.10 0.01 91 1004.0
20260506023701 53 202 6.0 10.0 0.00 0.10 0.01 91 1003.9
20260506023203 53 219 6.0 11.0 0.00 0.10 0.01 91 1003.9
20260506022701 53 202 7.0 11.0 0.00 0.10 0.01 91 1003.9
20260506022200 53 190 7.0 12.0 0.00 0.10 0.01 91 1004.0
20260506021702 53 217 8.0 12.0 0.00 0.10 0.01 91 1003.8
20260506021515 53 192 7.0 11.0 0.00 0.10 0.01 91 1003.9
20260506021008 53 171 7.0 11.0 0.00 0.10 0.01 91 1003.8
20260506020202 53 207 7.0 13.0 0.00 0.10 0.01 91 1003.8
20260506015702 53 195 7.0 13.0 0.00 0.10 0.01 91 1003.9
20260506015203 53 193 6.0 12.0 0.00 0.10 0.01 92 1004.0
20260506014702 53 193 7.0 12.0 0.00 0.10 0.01 91 1003.9
20260506014510 53 187 7.0 12.0 0.00 0.10 0.01 91 1004.0
20260506013701 53 180 6.0 12.0 0.00 0.10 0.01 91 1003.9
20260506013201 53 190 6.0 10.0 0.00 0.10 0.01 91 1004.1
20260506012701 53 200 6.0 9.0 0.00 0.10 0.01 91 1004.1
20260506012203 54 189 6.0 8.0 0.00 0.10 0.01 91 1004.1
20260506011703 54 202 4.0 7.0 0.00 0.10 0.01 91 1004.1
20260506011201 54 176 5.0 10.0 0.00 0.10 0.01 91 1004.2
20260506010703 54 199 6.0 10.0 0.00 0.10 0.01 91 1004.3
20260506010202 54 200 6.0 9.0 0.00 0.10 0.01 91 1004.3
20260506010001 54 190 6.0 9.0 0.00 0.10 0.01 91 1004.2
20260506005201 54 192 6.0 9.0 0.00 0.10 0.01 91 1004.3
20260506004814 54 198 6.0 9.0 0.00 0.10 0.01 91 1004.3
20260506004752 54 188 6.0 9.0 0.00 0.10 0.01 91 1004.3
20260506003701 54 193 5.0 10.0 0.00 0.10 0.01 91 1004.4
20260506003203 54 218 5.0 10.0 0.00 0.10 0.01 91 1004.4
20260506002703 54 190 6.0 11.0 0.00 0.10 0.01 91 1004.5
20260506002201 54 189 6.0 11.0 0.00 0.10 0.01 91 1004.5
20260506001704 54 192 6.0 10.0 0.00 0.10 0.01 91 1004.6
20260506001202 54 199 6.0 10.0 0.00 0.10 0.01 91 1004.6
20260506000701 54 207 6.0 10.0 0.00 0.10 0.01 91 1004.7
20260506000204 54 195 6.0 11.0 0.00 0.10 0.01 91 1004.6
20260505235703 54 190 6.0 11.0 0.01 0.10 0.01 91 1004.7
20260505235202 54 210 5.0 9.0 0.01 0.10 0.01 91 1004.7
20260505235004 54 175 5.0 9.0 0.01 0.10 0.01 91 1004.7
20260505234210 54 203 5.0 10.0 0.01 0.10 0.01 91 1004.7
20260505234014 54 186 5.0 10.0 0.01 0.10 0.01 91 1004.8
20260505233201 54 184 4.0 7.0 0.01 0.10 0.01 92 1004.8
20260505232702 54 171 3.0 9.0 0.01 0.10 0.01 91 1004.8
20260505232200 54 172 3.0 9.0 0.01 0.10 0.01 91 1004.8
20260505231700 54 161 3.0 7.0 0.01 0.10 0.01 91 1004.8
20260505231200 54 176 3.0 5.0 0.01 0.10 0.01 91 1004.8
20260505230703 54 176 4.0 6.0 0.01 0.10 0.01 91 1004.9
20260505230332 54 178 4.0 9.0 0.00 0.09 0.00 92 1004.9
20260505230254 54 196 4.0 6.0 0.01 0.10 0.01 91 1004.9
20260505225147 54 194 4.0 9.0 0.00 0.09 0.00 92 1004.9
20260505224647 54 173 4.0 7.0 0.00 0.09 0.00 91 1005.0
20260505224148 54 188 3.0 7.0 0.00 0.09 0.00 91 1005.0
20260505223648 54 206 1.0 5.0 0.00 0.09 0.00 91 1005.0
20260505223147 54 206 2.0 5.0 0.00 0.09 0.00 91 1005.0
20260505222648 54 189 3.0 8.0 0.00 0.09 0.00 91 1005.0
20260505222245 54 201 4.0 8.0 0.00 0.09 0.00 91 1005.1
20260505222228 54 189 4.0 8.0 0.00 0.09 0.00 91 1005.0
20260505221146 54 212 5.0 11.0 0.00 0.09 0.00 91 1005.0
20260505220644 54 179 4.0 11.0 0.00 0.09 0.00 91 1005.1
20260505220146 54 182 2.0 6.0 0.00 0.09 0.00 91 1005.1
20260505215647 54 205 1.0 5.0 0.00 0.09 0.09 91 1005.1
20260505215146 54 209 0.0 1.0 0.00 0.09 0.09 91 1005.1
20260505214932 54 209 0.0 2.0 0.00 0.09 0.09 91 1005.0
20260505214131 54 209 0.0 2.0 0.00 0.09 0.09 91 1005.0
20260505213628 54 197 0.0 2.0 0.00 0.09 0.09 91 1005.1
20260505213131 54 197 0.0 4.0 0.00 0.09 0.09 91 1005.1
20260505212631 54 197 0.0 4.0 0.00 0.09 0.09 91 1005.1
20260505212131 54 197 1.0 5.0 0.00 0.09 0.09 91 1005.1
20260505211630 54 197 3.0 6.0 0.00 0.09 0.09 91 1005.1
20260505211130 54 197 2.0 6.0 0.00 0.09 0.09 91 1005.1
20260505210629 54 178 2.0 7.0 0.00 0.09 0.09 91 1005.2
20260505210440 55 183 4.0 9.0 0.00 0.09 0.09 91 1005.2
20260505205628 55 205 4.0 9.0 0.00 0.09 0.09 91 1005.2
20260505205130 55 172 4.0 8.0 0.00 0.09 0.09 91 1005.2
20260505204631 55 191 3.0 8.0 0.00 0.09 0.09 91 1005.2
20260505204429 55 175 4.0 8.0 0.00 0.09 0.09 90 1005.1
20260505203628 55 195 4.0 8.0 0.00 0.09 0.09 90 1005.2
20260505203130 55 199 3.0 8.0 0.00 0.09 0.09 90 1005.1
20260505202629 55 188 3.0 8.0 0.00 0.09 0.09 90 1005.0
20260505202130 55 220 4.0 8.0 0.00 0.09 0.09 90 1005.0
20260505201631 55 188 4.0 8.0 0.00 0.09 0.09 90 1004.9
20260505201129 55 191 4.0 8.0 0.01 0.09 0.09 90 1004.9
20260505200628 55 205 5.0 8.0 0.01 0.09 0.09 90 1004.9
20260505200130 55 182 4.0 8.0 0.01 0.09 0.09 90 1004.9
20260505195629 55 173 4.0 9.0 0.01 0.09 0.09 90 1004.9
20260505195253 56 155 3.0 7.0 0.01 0.09 0.09 90 1004.9
20260505195225 55 182 4.0 9.0 0.01 0.09 0.09 90 1004.9
20260505194128 56 161 3.0 6.0 0.01 0.09 0.09 90 1004.8
20260505193628 56 166 3.0 6.0 0.01 0.09 0.09 90 1004.8
20260505193126 56 188 2.0 6.0 0.01 0.09 0.09 90 1004.9
20260505192628 56 155 2.0 5.0 0.01 0.09 0.09 89 1004.8
20260505192128 56 162 1.0 4.0 0.01 0.09 0.09 89 1004.8
20260505191626 56 153 2.0 6.0 0.01 0.09 0.09 89 1004.8
20260505191425 56 153 3.0 8.0 0.00 0.09 0.09 89 1004.7
20260505190926 56 149 1.0 8.0 0.00 0.09 0.09 89 1004.6
20260505190124 56 155 1.0 4.0 0.00 0.09 0.09 89 1004.7
20260505185623 56 155 1.0 4.0 0.01 0.09 0.09 89 1004.6
20260505185124 56 155 1.0 2.0 0.02 0.09 0.09 89 1004.6
20260505184620 56 155 1.0 2.0 0.02 0.09 0.09 89 1004.6
20260505184115 56 155 1.0 4.0 0.02 0.09 0.09 89 1004.6
20260505183604 57 155 1.0 4.0 0.02 0.09 0.09 89 1004.6
20260505183103 57 155 1.0 4.0 0.02 0.09 0.09 89 1004.7
20260505182851 57 155 1.0 4.0 0.02 0.09 0.09 88 1004.6
20260505182050 57 155 2.0 5.0 0.02 0.09 0.09 88 1004.6
20260505181850 57 156 2.0 5.0 0.02 0.09 0.09 88 1004.6
20260505181346 57 156 2.0 5.0 0.02 0.09 0.09 88 1004.6
20260505180707 57 156 0.0 5.0 0.02 0.09 0.09 87 1004.7
20260505180628 57 156 1.0 5.0 0.02 0.09 0.09 87 1004.7
20260505175839 58 169 0.0 4.0 0.01 0.08 0.08 86 1004.8
20260505175038 58 169 0.0 4.0 0.00 0.07 0.07 85 1004.7
20260505174538 58 169 0.0 1.0 0.00 0.07 0.07 85 1004.8
20260505174032 58 169 1.0 4.0 0.00 0.07 0.07 84 1004.8
20260505173832 58 169 1.0 4.0 0.00 0.07 0.07 83 1004.8
20260505173034 58 169 1.0 4.0 0.00 0.07 0.07 83 1004.8
20260505172535 58 169 0.0 4.0 0.00 0.07 0.07 83 1004.8
20260505172034 58 185 0.0 2.0 0.00 0.07 0.07 83 1004.8
20260505171533 58 185 0.0 2.0 0.00 0.07 0.07 82 1004.8
20260505171034 58 186 0.0 2.0 0.00 0.07 0.07 82 1004.8
20260505170533 58 221 0.0 2.0 0.00 0.07 0.07 82 1004.8
20260505170039 58 221 0.0 0.0 0.00 0.07 0.07 82 1004.8
20260505165531 58 221 0.0 2.0 0.00 0.07 0.07 82 1004.8
20260505165031 59 221 0.0 2.0 0.00 0.07 0.07 82 1004.9
20260505164529 59 221 0.0 1.0 0.00 0.07 0.07 82 1004.9
20260505164334 58 276 0.0 0.0 0.00 0.07 0.07 81 1004.9
20260505163529 59 276 0.0 0.0 0.00 0.07 0.07 82 1004.9
20260505163030 58 276 0.0 0.0 0.00 0.07 0.07 83 1004.9
20260505162536 58 276 0.0 0.0 0.00 0.07 0.07 83 1004.9
20260505162030 58 276 0.0 0.0 0.00 0.07 0.07 83 1004.9
20260505161528 58 276 0.0 1.0 0.00 0.07 0.07 82 1004.9
20260505161031 58 276 0.0 1.0 0.00 0.07 0.07 82 1005.0
20260505160830 58 276 0.0 1.0 0.00 0.07 0.07 83 1005.0
20260505160331 57 276 1.0 2.0 0.00 0.07 0.07 83 1005.0
20260505153028 57 266 0.0 2.0 0.01 0.07 0.07 81 1005.1
20260505152531 57 266 2.0 5.0 0.01 0.07 0.07 82 1005.2
20260505152029 57 266 3.0 5.0 0.01 0.07 0.07 81 1005.3
20260505151523 57 298 2.0 6.0 0.02 0.07 0.07 82 1005.3
20260505151025 57 257 3.0 6.0 0.02 0.07 0.07 85 1005.4
20260505150506 57 315 2.0 5.0 0.02 0.07 0.07 84 1005.4
20260505140502 58 213 2.0 5.0 0.02 0.06 0.06 84 1005.8
20260505140310 58 219 1.0 5.0 0.02 0.06 0.06 85 1005.8
20260505124936 58 249 1.0 5.0 0.03 0.04 0.04 86 1006.4
20260505124436 58 250 2.0 5.0 0.03 0.04 0.03 84 1006.4
20260505123933 58 217 3.0 5.0 0.02 0.03 0.03 84 1006.4
20260505123432 58 217 3.0 7.0 0.03 0.03 0.03 83 1006.4
20260505122931 58 171 3.0 7.0 0.03 0.03 0.03 85 1006.4
20260505122731 58 188 3.0 7.0 0.02 0.02 0.02 85 1006.5
20260505121935 58 250 3.0 6.0 0.02 0.02 0.02 83 1006.4
20260505121430 59 195 3.0 6.0 0.02 0.02 0.02 84 1006.5
20260505120930 58 195 1.0 5.0 0.02 0.02 0.02 84 1006.4
20260505120429 58 195 1.0 5.0 0.02 0.02 0.02 83 1006.4
20260505115930 58 195 3.0 8.0 0.02 0.02 0.02 83 1006.5
20260505115431 58 194 4.0 8.0 0.01 0.01 0.01 82 1006.5
20260505114930 58 186 5.0 8.0 0.01 0.01 0.01 82 1006.6
20260505114732 59 186 4.0 8.0 0.01 0.01 0.01 82 1006.5
20260505113930 59 175 4.0 7.0 0.01 0.01 0.01 82 1006.6
20260505113429 58 186 4.0 7.0 0.00 0.00 0.00 82 1006.5
20260505112929 58 194 4.0 7.0 0.00 0.00 0.00 82 1006.6
20260505112429 58 202 3.0 7.0 0.00 0.00 0.00 80 1006.6
20260505111931 59 206 2.0 6.0 0.00 0.00 0.00 81 1006.6
20260505111429 59 190 4.0 7.0 0.00 0.00 0.00 81 1006.6
20260505110931 58 211 4.0 7.0 0.00 0.00 0.00 81 1006.7
20260505110430 58 194 5.0 9.0 0.00 0.00 0.00 81 1006.7
20260505101908 59 206 3.0 10.0 0.00 0.00 0.00 80 1006.9
20260505101409 58 210 6.0 10.0 0.00 0.00 0.00 79 1007.0
20260505101211 58 221 5.0 10.0 0.00 0.00 0.00 79 1007.0
20260505100405 58 208 5.0 10.0 0.00 0.00 0.00 79 1007.0
20260505095905 58 248 5.0 9.0 0.00 0.00 0.00 79 1007.0
20260505095406 58 227 4.0 9.0 0.00 0.00 0.00 79 1007.0
20260505095208 58 229 4.0 7.0 0.00 0.00 0.00 80 1007.0
20260505094407 58 185 3.0 7.0 0.00 0.00 0.00 79 1007.1
20260505093904 58 178 1.0 6.0 0.00 0.00 0.00 81 1007.0
20260505093403 58 178 1.0 6.0 0.00 0.00 0.00 83 1007.1
20260505092904 57 194 0.0 4.0 0.00 0.00 0.00 83 1007.1
20260505092659 57 194 1.0 4.0 0.00 0.00 0.00 83 1007.1
20260505091904 56 194 2.0 6.0 0.00 0.00 0.00 85 1007.2
20260505091403 56 194 4.0 8.0 0.00 0.00 0.00 85 1007.3
20260505090904 56 173 5.0 10.0 0.00 0.00 0.00 84 1007.3
20260505090404 56 187 6.0 10.0 0.00 0.00 0.00 83 1007.4
20260505085902 57 184 7.0 10.0 0.00 0.00 0.00 82 1007.4
20260505085400 57 160 6.0 10.0 0.00 0.00 0.00 79 1007.3
20260505084901 58 184 6.0 9.0 0.00 0.00 0.00 77 1007.3
20260505084403 58 192 5.0 10.0 0.00 0.00 0.00 76 1007.3
20260505083902 58 218 4.0 10.0 0.00 0.00 0.00 75 1007.3
20260505083401 59 195 2.0 9.0 0.00 0.00 0.00 74 1007.3
20260505083157 59 185 3.0 8.0 0.00 0.00 0.00 73 1007.3
20260505082401 59 167 4.0 8.0 0.00 0.00 0.00 73 1007.3
20260505081903 59 167 3.0 7.0 0.00 0.00 0.00 73 1007.2
20260505081401 60 205 3.0 6.0 0.00 0.00 0.00 73 1007.2
20260505080901 59 201 2.0 5.0 0.00 0.00 0.00 73 1007.2
20260505080401 59 176 1.0 5.0 0.00 0.00 0.00 75 1007.2
20260505080214 59 190 2.0 6.0 0.00 0.00 0.00 76 1007.2
20260505075406 58 223 3.0 7.0 0.00 0.00 0.00 76 1007.3
20260505074901 58 234 4.0 7.0 0.00 0.00 0.00 76 1007.3
20260505074352 58 190 4.0 7.0 0.00 0.00 0.00 77 1007.3
20260505074140 58 190 2.0 7.0 0.00 0.00 0.00 77 1007.4
20260505073332 57 181 0.0 5.0 0.00 0.00 0.00 80 1007.5
20260505073123 57 322 0.0 0.0 0.00 0.00 0.00 81 1007.5
20260505072321 57 322 0.0 0.0 0.00 0.00 0.00 81 1007.5
20260505071816 57 323 0.0 0.0 0.00 0.00 0.00 82 1007.5
20260505071308 57 323 0.0 0.0 0.00 0.00 0.00 82 1007.6
20260505070808 56 323 0.0 0.0 0.00 0.00 0.00 83 1007.6
20260505070307 56 323 0.0 0.0 0.00 0.00 0.00 83 1007.6
20260505065803 56 323 0.0 0.0 0.00 0.00 0.00 83 1007.6
20260505065354 56 323 0.0 0.0 0.00 0.00 0.00 83 1007.6
20260505065337 56 323 0.0 0.0 0.00 0.00 0.00 82 1007.5
20260505064556 56 323 0.0 0.0 0.00 0.00 0.00 83 1007.6
20260505063802 56 323 0.0 0.0 0.00 0.00 0.00 83 1007.6
20260505063302 55 323 0.0 0.0 0.00 0.00 0.00 83 1007.6
20260505062802 55 323 0.0 0.0 0.00 0.00 0.00 83 1007.6
20260505062304 55 323 0.0 0.0 0.00 0.00 0.00 83 1007.7
20260505061802 55 323 0.0 0.0 0.00 0.00 0.00 83 1007.6
20260505061302 55 323 0.0 0.0 0.00 0.00 0.00 83 1007.7
20260505060803 55 323 0.0 0.0 0.00 0.00 0.00 83 1007.7
20260505060301 55 323 0.0 0.0 0.00 0.00 0.00 83 1007.7
20260505055801 55 323 0.0 0.0 0.00 0.00 0.00 83 1007.7
20260505055304 55 323 0.0 0.0 0.00 0.00 0.00 83 1007.7
20260505055055 55 323 0.0 0.0 0.00 0.00 0.00 84 1007.7